This is the latest recevied weather packets stored in our database for station/object HB9CJD-1. If no packets are shown the sender has not sent any weather packets the latest 1 day(s).
| Time | Temp. | Humidity | Pressure | Rain* | Wind** | Luminosity | Snow |
|---|---|---|---|---|---|---|---|
| 1777978260 | 13.33° C | 87% | 1012.2 hPa | - | 0 m/s | - | - |
| 1777978260 | 13.33° C | 87% | 1012.2 hPa | - | 0 m/s | - | - |
| 1777977656 | 13.33° C | 83% | 1012.1 hPa | - | 0 m/s | - | - |
| 1777977656 | 13.33° C | 83% | 1012.1 hPa | - | 0 m/s | - | - |
| 1777977053 | 13.89° C | 84% | 1012 hPa | - | 0 m/s | - | - |
| 1777977053 | 13.89° C | 84% | 1012 hPa | - | 0 m/s | - | - |
| 1777976450 | 13.89° C | 82% | 1012.1 hPa | - | 0 m/s | - | - |
| 1777976450 | 13.89° C | 82% | 1012.1 hPa | - | 0 m/s | - | - |
| 1777975847 | 13.33° C | 86% | 1012.1 hPa | - | 0 m/s | - | - |
| 1777975847 | 13.33° C | 86% | 1012.1 hPa | - | 0 m/s | - | - |
| 1777975243 | 12.78° C | 87% | 1012.1 hPa | - | 0 m/s | - | - |
| 1777975243 | 12.78° C | 87% | 1012.1 hPa | - | 0 m/s | - | - |
| 1777974640 | 12.78° C | 86% | 1012.2 hPa | - | 0 m/s | - | - |
| 1777974640 | 12.78° C | 86% | 1012.2 hPa | - | 0 m/s | - | - |
| 1777974037 | 13.33° C | 86% | 1012.2 hPa | - | 0 m/s | - | - |
| 1777974037 | 13.33° C | 86% | 1012.2 hPa | - | 0 m/s | - | - |
| 1777973434 | 12.78° C | 87% | 1012.1 hPa | - | 0 m/s | - | - |
| 1777973434 | 12.78° C | 87% | 1012.1 hPa | - | 0 m/s | - | - |
| 1777972830 | 12.78° C | 83% | 1012.2 hPa | - | 0 m/s | - | - |
| 1777972830 | 12.78° C | 83% | 1012.2 hPa | - | 0 m/s | - | - |
| 1777972228 | 12.22° C | 87% | 1012.1 hPa | - | 0 m/s | - | - |
| 1777972227 | 12.22° C | 87% | 1012.1 hPa | - | 0 m/s | - | - |
| 1777971624 | 12.22° C | 85% | 1012.1 hPa | - | 0 m/s | - | - |
| 1777971624 | 12.22° C | 85% | 1012.1 hPa | - | 0 m/s | - | - |
| 1777971021 | 12.22° C | 87% | 1012.2 hPa | - | 0 m/s | - | - |
* Rain since midnight (hover to see other rain measurements)
** Current wind speed in m/s (hover to see current wind gust speed)